Flag for Australia Weather past 2 weeks in Canberra, Australian Capital Territory, Australia

Now
81 °F

Passing clouds.


Feels Like: 81 °F
Forecast: 50 / 77 °F
Wind: 16 mph from West

Location: Canberra Airport

Current Time: Mar 1, 2015 at 3:52:50 PM

Latest Report: Mar 1, 2015 at 3:00 PM


Visibility: N/A

Pressure: 29.77 "Hg

Humidity: 42%

Dew point: 55 °F

Location of CanberraLocation

Historic Weather in Canberra — Graph

°F

Canberra temperature yesterday

Maximum temperature yesterday: 88 °F (at 4:00 PM)
Minimum temperature yesterday: 59 °F (at 7:00 AM)
Average temperature yesterday: 72 °F

Past Weeks' High & Low Weather Summary

 TemperatureHumidityPressure
High90 °F (Feb 23, 4:30 PM)100% (Feb 14, 9:00 PM)30.21 "Hg (Feb 14, 9:00 PM)
Low54 °F (Feb 27, 5:00 AM)26% (Feb 23, 5:00 PM)29.71 "Hg (Mar 1, 5:00 AM)
Average70 °F68%30.00 "Hg
* Reported Feb 14 3:00 PM — Mar 1 3:00 PM, Canberra, Weather by CustomWeather, © 2015

Note: Actual official high and low records may vary slightly from our data, if they occured in-between our weather recording intervals... More about our weather records

Advertising

Canberra weather history for previous 24 hours

 ConditionsComfort  
Time TempWeatherWind HumidityBarometerVisibility
3:00 PM
Sun, Mar 1
81 °FPassing clouds.16 mph42%29.77 "HgN/A
2:00 PM82 °FScattered showers. Broken clouds.16 mph37%29.77 "HgN/A
1:30 PM84 °FBroken clouds.15 mph37%29.77 "HgN/A
1:00 PM86 °FPartly sunny.20 mph33%29.77 "HgN/A
12:30 PM86 °FSunny.13 mph31%29.77 "Hg10 mi
12:00 PM81 °FScattered showers. Scattered clouds.12 mph42%29.77 "HgN/A
11:30 AM82 °FPartly sunny.20 mph37%29.77 "HgN/A
11:00 AM82 °FPassing clouds.13 mph37%29.77 "HgN/A
10:30 AM82 °FSunny.15 mph42%29.77 "Hg10 mi
10:00 AM77 °FSunny.14 mph47%29.74 "Hg10 mi
9:30 AM75 °FScattered showers. Partly sunny.8 mph50%29.77 "HgN/A
9:00 AM72 °FSunny.3 mph61%29.77 "Hg10 mi
8:00 AM63 °FSunny.5 mph83%29.77 "Hg10 mi
7:30 AM61 °FSunny.5 mph83%29.77 "Hg10 mi
7:00 AM59 °FSunny.5 mph88%29.77 "Hg10 mi
6:00 AM55 °FClear.6 mph88%29.74 "Hg10 mi
5:00 AM59 °FClear.6 mph82%29.71 "HgN/A
4:30 AM57 °FClear.No wind82%29.74 "HgN/A
4:00 AM59 °FClear.No wind82%29.74 "HgN/A
3:30 AM57 °FClear.No wind82%29.74 "HgN/A
3:00 AM61 °FClear.3 mph77%29.74 "HgN/A
2:30 AM61 °FClear.1 mph83%29.74 "HgN/A
2:00 AM59 °FClear.No wind82%29.74 "HgN/A
1:30 AM63 °FClear.2 mph73%29.74 "HgN/A
1:00 AM61 °FClear.3 mph72%29.77 "HgN/A
12:00 AM64 °FClear.5 mph64%29.77 "HgN/A
11:30 PM
Sat, Feb 28
66 °FClear.5 mph60%29.77 "HgN/A
11:00 PM66 °FPassing clouds.8 mph60%29.77 "HgN/A
10:30 PM66 °FClear.7 mph60%29.77 "HgN/A
10:00 PM68 °FPassing clouds.6 mph56%29.77 "HgN/A
9:30 PM70 °FPassing clouds.No wind50%29.77 "HgN/A
9:00 PM72 °FPassing clouds.2 mph47%29.77 "HgN/A
8:30 PM72 °FClear.3 mph47%29.77 "HgN/A
8:00 PM77 °FPassing clouds.5 mph36%29.77 "HgN/A
7:30 PM82 °FScattered clouds.7 mph30%29.74 "HgN/A
7:00 PM86 °FScattered clouds.9 mph27%29.74 "HgN/A
6:30 PM86 °FScattered clouds.7 mph27%29.74 "HgN/A
6:00 PM88 °FSunny.10 mph29%29.74 "Hg10 mi
5:00 PM86 °FSunny.10 mph29%29.74 "Hg10 mi
4:30 PM88 °FSunny.12 mph29%29.77 "Hg10 mi
4:00 PM88 °FSunny.9 mph31%29.77 "Hg10 mi
3:30 PM86 °FSunny.9 mph33%29.77 "Hg10 mi
3:00 PM84 °FSunny.13 mph31%29.80 "Hg10 mi
Weather by CustomWeather, © 2015

See weather overviewHow to use our weather pages